Location: Cornospital
(48.0620°N, 3.3837°W)
Time: 20:06:53
(UTC+00:00)

CENTAUR R/B - Pass Details

Date: 17 June 2021
Orbit: 740 x 1447 km, 63.4° (Epoch: 17 July)

Event Time Altitude Azimuth Distance (km) Brightness Sun altitude
Rises 21:07:40 0° 230° (SW) 3,429 5.4 -7.2°
Reaches altitude 10° 21:09:59 10° 233° (SW) 2,574 4.8 -7.4°
Maximum altitude 21:15:59 68° 316° (NW) 1,094 3.1 -8.1°
Drops below altitude 10° 21:23:14 10° 39° (NE) 3,086 5.3 -8.9°
Sets 21:26:16 0° 42° (NE) 4,160 5.9 -9.2°
